TimeAKST,TemperatureF,Dew PointF,Humidity,Sea Level PressureIn,VisibilityMPH,Wind Direction,Wind SpeedMPH,Gust SpeedMPH,PrecipitationIn,Events,Conditions,WindDirDegrees,DateUTC
12:53 AM,12.9,-6.0,43,30.13,9.0,NE,40.3,52.9,0.00,Snow,Light Snow,40,2012-12-25 09:53:00
1:53 AM,12.9,-6.0,43,30.13,9.0,NE,32.2,46.0,0.00,Snow,Light Snow,40,2012-12-25 10:53:00
3:53 AM,12.9,-6.0,43,30.12,10.0,NE,34.5,48.3,0.00,Snow,Light Snow,40,2012-12-25 12:53:00
4:53 AM,12.0,-6.0,44,30.10,9.0,NE,34.5,46.0,0.00,Snow,Light Snow,50,2012-12-25 13:53:00
5:53 AM,12.9,-6.0,43,30.09,10.0,NE,31.1,50.6,0.00,Snow,Light Snow,40,2012-12-25 14:53:00
6:53 AM,12.0,-6.0,44,30.07,10.0,NE,28.8,43.7,0.00,,Clear,40,2012-12-25 15:53:00
7:53 AM,10.9,-7.1,44,30.07,9.0,NE,38.0,51.8,0.00,Snow,Light Snow,40,2012-12-25 16:53:00
8:53 AM,12.0,-7.1,42,30.07,9.0,NE,31.1,55.2,0.00,Snow,Light Snow,40,2012-12-25 17:53:00
9:53 AM,10.9,-7.1,44,30.07,9.0,NE,34.5,50.6,0.00,Snow,Light Snow,40,2012-12-25 18:53:00
10:53 AM,12.0,-6.0,44,30.06,9.0,NE,29.9,48.3,0.00,Snow,Light Snow,50,2012-12-25 19:53:00
11:53 AM,12.0,-7.1,42,30.02,10.0,NE,39.1,51.8,0.00,,Clear,50,2012-12-25 20:53:00
12:53 PM,12.9,-6.0,43,30.03,10.0,NE,29.9,47.2,N/A,,Clear,40,2012-12-25 21:53:00
1:53 PM,12.0,-6.0,44,30.00,9.0,NE,41.4,50.6,0.00,Snow,Light Snow,40,2012-12-25 22:53:00
2:53 PM,12.0,-6.0,44,30.02,9.0,NE,31.1,49.5,0.00,Snow,Light Snow,40,2012-12-25 23:53:00
3:53 PM,12.0,-7.1,42,30.00,9.0,NE,34.5,54.1,0.00,Snow,Light Snow,40,2012-12-26 00:53:00
4:53 PM,12.0,-7.1,42,29.99,9.0,NE,34.5,49.5,0.00,Snow,Light Snow,50,2012-12-26 01:53:00
5:53 PM,12.0,-7.1,42,29.98,9.0,NE,33.4,48.3,0.00,Snow,Light Snow,40,2012-12-26 02:53:00
6:53 PM,12.0,-6.0,44,29.96,9.0,NE,39.1,51.8,0.00,Snow,Light Snow,40,2012-12-26 03:53:00
7:53 PM,12.0,-6.0,44,29.98,9.0,NE,26.5,43.7,0.00,,Clear,40,2012-12-26 04:53:00
8:53 PM,10.9,-7.1,44,29.96,9.0,NE,36.8,58.7,0.00,Snow,Light Snow,40,2012-12-26 05:53:00
9:53 PM,12.0,-7.1,42,29.97,9.0,NE,27.6,43.7,0.00,,Clear,50,2012-12-26 06:53:00
10:53 PM,12.9,-7.1,41,29.96,9.0,NE,34.5,48.3,0.00,Snow,Light Snow,50,2012-12-26 07:53:00
11:53 PM,12.0,-6.0,44,29.96,9.0,NE,29.9,50.6,0.00,Snow,Light Snow,40,2012-12-26 08:53:00